Location: *
(49.0044°N, 9.5056°E)
Time: 15:28:06
(UTC+00:00)

Cosmos 1850 Rocket - Pass Details

Date: 22 September 2019
Orbit: 755 x 785 km, 74.0° (Epoch: 18 October)

Event Time Altitude Azimuth Distance (km) Brightness Sun altitude
Rises 18:50:41 0° 340° (NNW) 3,223 7.8 -15.3°
Reaches altitude 10° 18:53:12 10° 348° (NNW) 2,293 6.9 -15.7°
Maximum altitude 18:58:07 42° 59° (ENE) 1,082 4.5 -16.5°
Enters shadow 19:00:10 29° 107° (ESE) 1,373 4.7 -16.8°
